Observer details:
695 Kitt Peak.  Observers L. H. Wasserman, M. W. Buie.  Measurer M. W. Buie.
    4-m f/2.8 reflector + 8K CCD + prime-focus corrector.
F51 Pan-STARRS 1, Haleakala.  Observers J. Bulger, T. Lowe, P. Minguez, A.
    Schultz, I. Smith.  Measurers K. Chambers, T. de Boer, J. Fairlamb, H.
    Gao, M. Huber, E. Lilly, C.-C. Lin, E. Magnier, Y. Ramanjooloo, R.
    Wainscoat, R. Weryk.  1.8-m Ritchey-Chretien + CCD.
F52 Pan-STARRS 2, Haleakala.  Observers J. Bulger, T. Lowe, P. Minguez, A.
    Schultz, I. Smith.  Measurers K. Chambers, T. de Boer, J. Fairlamb, H.
    Gao, M. Huber, C.-C. Lin, E. Magnier, Y. Ramanjooloo, R. Wainscoat, R.
    Weryk.  1.8-m Ritchey-Chretien + CCD.

Orbital elements:
2015 GM83                                                                       
Epoch 2023 Sept. 13.0 TT = JDT 2460200.5                Alexandersen            
M  15.41116              (2000.0)            P               Q                  
n   0.01427027     Peri.  262.25371     -0.68267725     +0.71476461             
a  16.8337627      Node   323.15475     -0.52982857     -0.62731184             
e   0.4669736      Incl.   14.67024     -0.50322307     -0.30917859             
P  69.1            H   12.14          G   0.15           U   3                  
Residuals in seconds of arc
110130 F51  0.0   0.1-    150315 F51  0.2-  0.1+    170225 F51  0.2+  0.1-
110130 F51  0.2+  0.0     150415 695  0.2+  0.2+    170319 F51  0.1-  0.3-
110130 F51  0.2+  0.2-    150415 695  0.1+  0.1+    170319 F51  0.0   0.1+
110130 F51  0.1-  0.1+    150415 695  0.3+  0.1+    170319 F51  0.0   0.0
120213 F51  0.2+  0.1+    151209 F51  0.1-  0.2-    170319 F51  0.0   0.1-
120213 F51  0.5-  0.2-    151209 F51  0.0   0.2+    170329 F51  0.0   0.0
120213 F51  0.2-  0.2+    151209 F51  0.0   0.0     170329 F51  0.0   0.1-
120213 F51  0.1-  0.0     151209 F51  0.1-  0.2+    170329 F51  0.2-  0.2-
140125 F51  0.1+  0.1-    160104 F51  0.0   0.0     170329 F51  0.1-  0.0
140125 F51  0.1-  0.0     160114 F51  0.1-  0.1+    171120 F51  0.4+  0.1-
140125 F51  0.2+  0.0     160114 F51  0.0   0.1-    180211 F51  0.1+  0.1-
140125 F51  0.4+  0.2+    160114 F51  0.0   0.1+    180211 F51  0.0   0.2+
140228 F51  0.1-  0.1-    160114 F51  0.0   0.0     180211 F51  0.0   0.1+
140228 F51  0.1-  0.0     160117 F51  0.2-  0.1+    180211 F51  0.0   0.0
140228 F51  0.1+  0.1+    160117 F51  0.1+  0.2+    180320 F51  0.0   0.0
140228 F51  0.1+  0.1-    160117 F51  0.0   0.0     180320 F51  0.0   0.0
140324 F51  0.1+  0.0     160117 F51  0.1+  0.0     180320 F51  0.1-  0.0
140525 F51  0.1-  0.1-    160307 F51  0.0   0.2+    190504 F51  0.2-  0.1+
141127 F51  0.2+  0.1-    160307 F51  0.2-  0.1+    190504 F51  0.2-  0.3-
141129 F51  0.1-  0.1+    160307 F51  0.1+  0.0     190504 F51  0.0   0.2-
150122 F51  0.1-  0.1-    160307 F51  0.1-  0.1-    190504 F51  0.1-  0.4+
150122 F51  0.1-  0.2+    160331 F51  0.1+  0.0     190504 F51  0.1+  0.0
150122 F51  0.1-  0.1-    160331 F51  0.1-  0.1-    190504 F51  0.2+  0.3-
150122 F51  0.1+  0.2+    160331 F51  0.1-  0.2-    190524 F52  0.0   0.1-
150216 F51  0.1-  0.2+    160331 F51  0.2-  0.0     190524 F52  0.2+  0.1-
150216 F51  0.0   0.0     170126 F51  0.1+  0.1-    190601 F52  0.4-  0.0
150216 F51  0.0   0.0     170126 F51  0.1-  0.0     190601 F52  0.1+  0.1+
150216 F51  0.1-  0.0     170126 F51  0.1-  0.1+    190601 F52  0.1+  0.1+
150217 F51  0.1-  0.3-    170126 F51  0.0   0.2+    190601 F52  0.0   0.0
150217 F51  0.2+  0.1+    170203 F51  0.0   0.0     200514 F51  0.0   0.0
150217 F51  0.3+  0.1-    170203 F51  0.2-  0.1-    200514 F51  0.1+  0.0
150217 F51  0.1+  0.0     170203 F51  0.1+  0.1-    200514 F51  0.0   0.1-
150314 F51  0.1-  0.1-    170203 F51  0.0   0.1+    200514 F51  0.1+  0.1+
150315 F51  0.1-  0.2-    170225 F51  0.0   0.0     200515 F51  0.0   0.0
150315 F51  0.0   0.1-    170225 F51  0.0   0.1-    200515 F51  0.1+  0.0
150315 F51  0.1+  0.1+    170225 F51  0.1+  0.1+    200515 F51  0.2-  0.3+

Ephemeris:
2015 GM83                a,e,i = 16.83, 0.47, 15                 q = 8.9728
Date    TT    R. A. (2000) Decl.     Delta      r    Elong.  Phase     V
2023 09 16    17 37 45.9 -35 06 07   9.7954  9.8945    92.7     5.8    22.5
...
2023 10 01    17 41 09.8 -34 45 25  10.0597  9.9181    79.0     5.7    22.6
...
2023 10 09    17 43 37.1 -34 35 12  10.1972  9.9308    71.8     5.5    22.6
...
2023 10 15    17 45 43.8 -34 27 56  10.2971  9.9403    66.4     5.3    22.6
2023 10 16    17 46 06.2 -34 26 46  10.3134  9.9419    65.5     5.2    22.6
2023 10 17    17 46 28.9 -34 25 36  10.3296  9.9435    64.6     5.2    22.6
...
2023 10 23    17 48 52.6 -34 18 48  10.4245  9.9531    59.3     4.9    22.6
...
2023 10 31    17 52 22.0 -34 10 15  10.5434  9.9660    52.2     4.5    22.6
...
2023 11 15    17 59 41.3 -33 55 44  10.7382  9.9902    39.1     3.6    22.6

M. P. C. Staff               (C) Copyright 2023 MPC           M.P.E.C. 2023-U20





More information about the Iaude mailing list